Change the Weather History Date:

Monday, May 6, 2013

  Actual Average Record
Temperature  
Mean Temperature 59 °F 62 °F  
Max Temperature 63 °F 73 °F 94 °F (1949)
Min Temperature 55 °F 50 °F 32 °F (1968)
Degree Days  
Heating Degree Days 6 5  
Month to date heating degree days 16 32  
Since 1 July heating degree days 4449 4420  
Cooling Degree Days 0 1  
Month to date cooling degree days 5 6  
Year to date cooling degree days 48 38  
Growing Degree Days 9 (Base 50)    
Moisture  
Dew Point 54 °F    
Average Humidity 79    
Maximum Humidity 86    
Minimum Humidity 72    
Precipitation  
Precipitation 0.14 in 0.15 in 1.10 in (1929)
Month to date precipitation 0.50 0.86  
Year to date precipitation 12.50 14.24  
Snow  
Snow 0.00 in - - ()
Month to date snowfall 0.0  
Since 1 September snowfall 12.4  
Snow Depth 0.00 in    
Sea Level Pressure  
Sea Level Pressure 29.90 in    
Wind  
Wind Speed 7 mph (ENE)    
Max Wind Speed 14 mph    
Max Gust Speed 20 mph    
Visibility 9 miles    
Events Rain    
T = Trace of Precipitation, MM = Missing Value Source: NWS Daily Summary

Daily Weather History Graph

Daily Weather History Graph

Search for Another Location

Airport or City:

Trip Planner

Search our weather history database for the weather conditions in past years. The results will help you decide how hot, cold, wet, or windy it might be!

Date:

Astronomy

May. 06, 2013 Rise Set
Actual Time 6:27 AM EDT 8:26 PM EDT
Civil Twilight 5:58 AM EDT 8:55 PM EDT
Nautical Twilight 5:23 AM EDT 9:31 PM EDT
Astronomical Twilight 4:45 AM EDT 10:09 PM EDT
Moon 4:26 AM EDT 5:27 PM EDT
Length of Visible Light 14h 57m
Length of Day
13h 59m
Waning Crescent, 11% of the Moon is Illuminated
May 6
Waning Crescent
May 9
New
May 18
First Quarter
May 25
Full
May 31
Last Quarter

Hourly Weather History & Observations

Time (EDT) Temp. Dew Point Humidity Pressure Visibility Wind Dir Wind Speed Gust Speed Precip Events Conditions
12:51 AM 57.0 °F 52.0 °F 83% 29.91 in 10.0 mi ENE 5.8 mph - 0.00 in Rain Light Rain
1:51 AM 57.0 °F 52.0 °F 83% 29.89 in 10.0 mi ENE 5.8 mph - 0.00 in   Overcast
2:51 AM 55.9 °F 50.0 °F 80% 29.88 in 10.0 mi NE 4.6 mph - 0.00 in   Mostly Cloudy
3:51 AM 55.9 °F 50.0 °F 80% 29.86 in 10.0 mi NE 9.2 mph - 0.00 in   Mostly Cloudy
4:51 AM 55.9 °F 50.0 °F 80% 29.87 in 10.0 mi ENE 8.1 mph - N/A   Scattered Clouds
5:51 AM 55.9 °F 50.0 °F 80% 29.87 in 10.0 mi ENE 5.8 mph - N/A   Scattered Clouds
6:51 AM 55.9 °F 50.0 °F 80% 29.88 in 10.0 mi ENE 6.9 mph - N/A   Overcast
7:51 AM 55.9 °F 50.0 °F 80% 29.90 in 10.0 mi NE 6.9 mph - N/A   Overcast
8:51 AM 55.0 °F 50.0 °F 83% 29.91 in 6.0 mi East 3.5 mph - 0.01 in Rain Light Rain
9:51 AM 57.0 °F 51.1 °F 81% 29.91 in 10.0 mi NE 4.6 mph - 0.00 in   Overcast
10:51 AM 60.1 °F 51.1 °F 72% 29.91 in 10.0 mi ENE 6.9 mph - N/A   Mostly Cloudy
11:51 AM 61.0 °F 53.1 °F 75% 29.91 in 10.0 mi NE 6.9 mph - 0.00 in Rain Light Rain
12:51 PM 63.0 °F 54.0 °F 72% 29.90 in 10.0 mi NE 8.1 mph - 0.00 in   Mostly Cloudy
1:51 PM 60.1 °F 54.0 °F 80% 29.90 in 10.0 mi NE 4.6 mph - 0.00 in Rain Light Rain
2:51 PM 60.1 °F 55.9 °F 86% 29.91 in 3.0 mi ENE 5.8 mph - 0.02 in Rain Rain
3:30 PM 60.8 °F 57.2 °F 88% 29.91 in 5.0 mi ENE 5.8 mph - N/A Rain Light Rain
3:51 PM 60.1 °F 57.0 °F 90% 29.90 in 8.0 mi NE 3.5 mph - 0.06 in   Overcast
4:01 PM 60.8 °F 57.2 °F 88% 29.91 in 10.0 mi NE 3.5 mph - N/A   Overcast
4:51 PM 60.1 °F 57.0 °F 90% 29.89 in 7.0 mi NE 8.1 mph - 0.02 in Rain Light Rain
5:06 PM 60.8 °F 57.2 °F 88% 29.89 in 8.0 mi NE 9.2 mph - 0.00 in Rain Light Rain
5:51 PM 60.1 °F 57.0 °F 90% 29.88 in 9.0 mi NE 8.1 mph - 0.01 in Rain Light Rain
6:46 PM 59.0 °F 55.4 °F 88% 29.89 in 10.0 mi ENE 9.2 mph - 0.02 in   Overcast
6:51 PM 59.0 °F 55.9 °F 90% 29.88 in 10.0 mi ENE 6.9 mph - 0.02 in   Overcast
7:51 PM 59.0 °F 55.0 °F 87% 29.87 in 10.0 mi ENE 6.9 mph - 0.00 in Rain Light Rain
8:51 PM 57.9 °F 54.0 °F 87% 29.88 in 10.0 mi ENE 8.1 mph - 0.00 in   Overcast
9:51 PM 57.9 °F 55.0 °F 90% 29.90 in 10.0 mi ENE 6.9 mph 17.3 mph 0.00 in Rain Light Rain
10:37 PM 57.2 °F 55.4 °F 94% 29.92 in 10.0 mi East 8.1 mph - 0.00 in   Overcast
10:51 PM 57.9 °F 55.9 °F 93% 29.91 in 10.0 mi East 9.2 mph - 0.00 in   Overcast
11:02 PM 57.2 °F 55.4 °F 94% 29.92 in 10.0 mi East 6.9 mph - N/A   Overcast
11:19 PM 57.2 °F 55.4 °F 94% 29.91 in 10.0 mi East 9.2 mph - N/A   Overcast
11:47 PM 57.2 °F 55.4 °F 94% 29.90 in 10.0 mi ENE 8.1 mph - N/A   Mostly Cloudy
11:51 PM 57.0 °F 54.0 °F 89% 29.90 in 10.0 mi ENE 8.1 mph - N/A   Scattered Clouds